Tracking 19146 objects as of 23-Apr-2018
HD Live streaming from Space Station
objects crossing your sky now

SL-8 R/B

Track SL-8 R/B now!
10-day predictions
SL-8 R/B is classified as:


NORAD ID: 7004
Int'l Code: 1973-107B
Perigee: 329.2 km
Apogee: 540.6 km
Inclination: 73.9 °
Period: 93.1 minutes
Semi major axis: 6805 km
RCS: 5.7394 m2 (large)
Launch date: December 26, 1973
Source: Commonwealth of Independent States (former USSR) (CIS)
Launch site: PLESETSK MISSILE AND SPACE COMPLEX (PKMTR)

Note: This is a ROCKET BODY
aabbcc
Your satellite tracking list
Your tracking list is empty




NASA's NSSDC Master Catalog

Two Line Element Set (TLE):
1  7004U 73107B   18112.96542494 +.00008689 +00000-0 +11087-3 0  9996
2  7004 073.9307 106.2174 0155369 256.8878 101.4954 15.46231548285004
Source of the keplerian elements: AFSPC